Back to Top

Language: 

My Weather Underground Personal Weather Station Historical Data with Graphs...

Delerius Weather Station Historical Data
Daily Summary for January 4, 2016 Units:  Metric    English   Both
« Previous Day
Next Day »
Daily Weekly Monthly Yearly Custom
  High: Low: Average:
Temperature: 6.6 °C 3.8 °C 5.4 °C
Dew Point: 6.4 °C 3.3 °C 5.1 °C
Humidity: 99 % 96 % 98 %
Wind Speed: 11.3 km/h 0 km/h 4.8 km/h
Wind Gust: 14.5 km/h - -
Wind:- - ESE
Pressure: 980.9 hPa 979.9 hPa -
Precipitation: 2.29 mm    
Historical Graphs
 
 
Tabular Data for January 4, 2016
Time Temperature Dew Point Pressure Wind Wind Speed Wind Gust Humidity Rainfall Rate (Hourly) solar Conditions
00:00 4.7 °C 4.1 °C 980.6 hPa Calm   9.7 km/h 96 % 0 mm 0 W/m2
00:05 4.7 °C 4.1 °C 980.6 hPa South 1.6 km/h 9.7 km/h 96 % 0 mm 0 W/m2
00:15 4.8 °C 4.3 °C 980.9 hPa ESE 1.6 km/h 6.4 km/h 97 % 0 mm 0 W/m2
00:25 4.7 °C 4.2 °C 980.9 hPa Calm   1.6 km/h 97 % 0 mm 0 W/m2
00:30 4.7 °C 4.3 °C 980.6 hPa Calm     97 % 0 mm 0 W/m2
00:35 4.7 °C 4.2 °C 980.9 hPa Calm     97 % 0 mm 0 W/m2
00:40 4.6 °C 4.1 °C 980.6 hPa Calm     96 % 0 mm 0 W/m2
00:45 4.7 °C 4.2 °C 980.9 hPa Calm     97 % 0 mm 0 W/m2
00:50 4.6 °C 4.2 °C 980.9 hPa Calm     97 % 0 mm 0 W/m2
01:00 4.6 °C 4.1 °C 980.9 hPa Calm     97 % 0 mm 0 W/m2
01:05 4.6 °C 4.1 °C 980.6 hPa Calm   8 km/h 97 % 0 mm 0 W/m2
01:10 4.6 °C 4.2 °C 980.6 hPa Calm   8 km/h 97 % 0 mm 0 W/m2
01:15 4.6 °C 4.2 °C 980.6 hPa East 1.6 km/h 8 km/h 97 % 0 mm 0 W/m2
01:20 4.6 °C 4.2 °C 980.9 hPa ESE 1.6 km/h 1.6 km/h 97 % 0 mm 0 W/m2
01:25 4.6 °C 4.1 °C 980.9 hPa ESE 1.6 km/h 8 km/h 97 % 0 mm 0 W/m2
01:30 4.4 °C 4 °C 980.9 hPa ESE 1.6 km/h 8 km/h 97 % 0 mm 0 W/m2
01:35 4.4 °C 3.9 °C 980.6 hPa ESE 1.6 km/h 8 km/h 97 % 0 mm 0 W/m2
01:40 4.3 °C 3.9 °C 980.9 hPa SE 1.6 km/h 1.6 km/h 97 % 0 mm 0 W/m2
01:45 4.3 °C 3.9 °C 980.9 hPa SE 1.6 km/h 8 km/h 97 % 0 mm 0 W/m2
01:55 4.2 °C 3.8 °C 980.6 hPa SE 1.6 km/h 8 km/h 97 % 0 mm 0 W/m2
02:00 4.2 °C 3.8 °C 980.6 hPa SE 1.6 km/h 1.6 km/h 97 % 0 mm 0 W/m2
02:05 4.2 °C 3.7 °C 980.6 hPa SE 1.6 km/h 8 km/h 97 % 0 mm 0 W/m2
02:15 4.1 °C 3.6 °C 980.6 hPa Calm   8 km/h 97 % 0 mm 0 W/m2
02:20 4 °C 3.6 °C 980.6 hPa Calm   8 km/h 97 % 0 mm 0 W/m2
02:25 4 °C 3.6 °C 980.6 hPa Calm   8 km/h 97 % 0 mm 0 W/m2
02:30 4 °C 3.6 °C 980.6 hPa Calm   8 km/h 97 % 0 mm 0 W/m2
02:40 3.9 °C 3.5 °C 980.6 hPa Calm   8 km/h 97 % 0 mm 0 W/m2
02:45 3.9 °C 3.4 °C 980.6 hPa Calm   8 km/h 97 % 0 mm 0 W/m2
02:50 3.8 °C 3.4 °C 980.6 hPa Calm   8 km/h 97 % 0 mm 0 W/m2
02:55 3.8 °C 3.4 °C 980.6 hPa Calm   8 km/h 97 % 0 mm 0 W/m2
03:00 3.8 °C 3.3 °C 980.9 hPa Calm   8 km/h 97 % 0 mm 0 W/m2
03:10 3.8 °C 3.4 °C 980.9 hPa Calm   8 km/h 97 % 0 mm 0 W/m2
03:15 3.9 °C 3.5 °C 980.9 hPa Calm   8 km/h 97 % 0 mm 0 W/m2
03:20 4.1 °C 3.6 °C 980.6 hPa SE 1.6 km/h 8 km/h 97 % 0 mm 0 W/m2
03:25 4.2 °C 3.9 °C 980.6 hPa ESE 1.6 km/h 8 km/h 98 % 0 mm 0 W/m2
03:30 4.2 °C 3.9 °C 980.6 hPa ESE 1.6 km/h 8 km/h 98 % 0 mm 0 W/m2
03:35 4.2 °C 3.8 °C 980.6 hPa East 1.6 km/h 8 km/h 97 % 0 mm 0 W/m2
03:45 4.3 °C 3.8 °C 980.6 hPa ESE 1.6 km/h 8 km/h 97 % 0 mm 0 W/m2
03:50 4.3 °C 4.1 °C 980.6 hPa ESE 1.6 km/h 8 km/h 98 % 0 mm 0 W/m2
03:55 4.3 °C 4.1 °C 980.2 hPa ESE 1.6 km/h 8 km/h 98 % 0 mm 0 W/m2
04:00 4.3 °C 4.1 °C 980.6 hPa East 1.6 km/h 8 km/h 98 % 0 mm 0 W/m2
04:05 4.4 °C 4.1 °C 980.6 hPa ESE 3.2 km/h 8 km/h 98 % 0 mm 0 W/m2
04:15 4.3 °C 3.8 °C 980.6 hPa ESE 1.6 km/h 8 km/h 97 % 0 mm 0 W/m2
04:20 4.3 °C 3.8 °C 980.6 hPa ESE 1.6 km/h 8 km/h 97 % 0 mm 0 W/m2
04:25 4.3 °C 3.8 °C 980.6 hPa ESE 3.2 km/h 8 km/h 97 % 0 mm 0 W/m2
04:30 4.3 °C 4.1 °C 980.6 hPa ESE 3.2 km/h 3.2 km/h 98 % 0 mm 0 W/m2
04:35 4.4 °C 4.1 °C 980.6 hPa SE 3.2 km/h 8 km/h 98 % 0 mm 0 W/m2
04:50 4.5 °C 4.2 °C 980.2 hPa SE 1.6 km/h 8 km/h 98 % 0 mm 0 W/m2
04:55 4.5 °C 4.2 °C 980.2 hPa ESE 1.6 km/h 8 km/h 98 % 0 mm 0 W/m2
05:00 4.6 °C 4.3 °C 980.2 hPa ESE 1.6 km/h 1.6 km/h 98 % 0 mm 0 W/m2
05:05 4.6 °C 4.3 °C 980.2 hPa East 1.6 km/h 6.4 km/h 98 % 0 mm 0 W/m2
05:10 4.6 °C 4.3 °C 980.2 hPa East 3.2 km/h 3.2 km/h 98 % 0 mm 0 W/m2
05:20 4.7 °C 4.4 °C 980.2 hPa East 1.6 km/h 8 km/h 98 % 0 mm 0 W/m2
05:25 4.7 °C 4.4 °C 980.2 hPa East 1.6 km/h 8 km/h 98 % 0 mm 0 W/m2
05:30 4.7 °C 4.4 °C 980.2 hPa ESE 3.2 km/h 3.2 km/h 98 % 0 mm 0 W/m2
05:35 4.7 °C 4.4 °C 980.2 hPa ESE 4.8 km/h 6.4 km/h 98 % 0 mm 0 W/m2
05:45 4.7 °C 4.4 °C 980.2 hPa ENE 3.2 km/h 8 km/h 98 % 0 mm 0 W/m2
05:50 4.7 °C 4.4 °C 980.2 hPa East 3.2 km/h 3.2 km/h 98 % 0 mm 0 W/m2
05:55 4.7 °C 4.4 °C 980.2 hPa East 3.2 km/h 6.4 km/h 98 % 0 mm 0 W/m2
06:05 4.7 °C 4.4 °C 980.2 hPa ESE 4.8 km/h 8 km/h 98 % 0 mm 0 W/m2
06:10 4.7 °C 4.4 °C 980.2 hPa East 4.8 km/h 4.8 km/h 98 % 0 mm 0 W/m2
06:15 4.7 °C 4.4 °C 980.2 hPa ENE 3.2 km/h 8 km/h 98 % 0 mm 0 W/m2
06:20 4.7 °C 4.2 °C 980.2 hPa East 3.2 km/h 8 km/h 97 % 0 mm 0 W/m2
06:30 4.6 °C 4.3 °C 980.2 hPa ENE 3.2 km/h 3.2 km/h 98 % 0 mm 0 W/m2
06:35 4.6 °C 4.3 °C 980.2 hPa East 3.2 km/h 8 km/h 98 % 0 mm 0 W/m2
06:40 4.5 °C 4.2 °C 980.2 hPa ENE 3.2 km/h 9.7 km/h 98 % 0 mm 0 W/m2
06:45 4.5 °C 4.2 °C 980.2 hPa East 3.2 km/h 9.7 km/h 98 % 0 mm 0 W/m2
06:50 4.4 °C 4.2 °C 980.2 hPa ESE 3.2 km/h 8 km/h 98 % 0 mm 0 W/m2
07:00 4.4 °C 4.2 °C 980.2 hPa ENE 1.6 km/h 8 km/h 98 % 0 mm 0 W/m2
07:05 4.4 °C 4.2 °C 980.2 hPa ENE 3.2 km/h 9.7 km/h 98 % 0 mm 0 W/m2
07:10 4.4 °C 4.1 °C 980.2 hPa East 3.2 km/h 8 km/h 98 % 0 mm 0 W/m2
07:15 4.4 °C 4.1 °C 980.2 hPa ENE 3.2 km/h 8 km/h 98 % 0 mm 0 W/m2
07:20 4.4 °C 4.1 °C 980.2 hPa ESE 1.6 km/h 8 km/h 98 % 0 mm 0 W/m2
07:25 4.4 °C 4.2 °C 980.2 hPa East 1.6 km/h 8 km/h 98 % 0 mm 0 W/m2
07:35 4.4 °C 4.2 °C 980.2 hPa East 1.6 km/h 8 km/h 98 % 0 mm 0 W/m2
07:40 4.4 °C 4.2 °C 980.2 hPa East 1.6 km/h 1.6 km/h 98 % 0 mm 0 W/m2
07:45 4.4 °C 4.2 °C 980.6 hPa East 3.2 km/h 3.2 km/h 98 % 0 mm 0 W/m2
07:50 4.4 °C 4.2 °C 980.6 hPa ENE 4.8 km/h 8 km/h 98 % 0 mm 0 W/m2
07:55 4.5 °C 4.2 °C 980.6 hPa ESE 4.8 km/h 8 km/h 98 % 0 mm 0 W/m2
08:05 4.5 °C 4.2 °C 980.6 hPa ESE 3.2 km/h 8 km/h 98 % 0 mm 0 W/m2
08:10 4.5 °C 4.2 °C 980.2 hPa ENE 3.2 km/h 3.2 km/h 98 % 0 mm 0 W/m2
08:15 4.5 °C 4.2 °C 980.6 hPa East 3.2 km/h 8 km/h 98 % 0 mm 0 W/m2
08:20 4.6 °C 4.3 °C 980.6 hPa East 3.2 km/h 3.2 km/h 98 % 0 mm 0 W/m2
08:25 4.6 °C 4.3 °C 980.6 hPa ESE 1.6 km/h 8 km/h 98 % 0 mm 0 W/m2
08:30 4.6 °C 4.3 °C 980.6 hPa ESE 1.6 km/h 1.6 km/h 98 % 0 mm 0 W/m2
08:40 4.6 °C 4.3 °C 980.6 hPa East 3.2 km/h 8 km/h 98 % 0 mm 5 W/m2
08:45 4.7 °C 4.4 °C 980.6 hPa ESE 3.2 km/h 8 km/h 98 % 0 mm 7 W/m2
08:50 4.7 °C 4.4 °C 980.9 hPa ESE 1.6 km/h 8 km/h 98 % 0 mm 7 W/m2
08:55 4.7 °C 4.4 °C 980.9 hPa ESE 1.6 km/h 8 km/h 98 % 0 mm 7 W/m2
09:00 4.7 °C 4.4 °C 980.9 hPa East 1.6 km/h 8 km/h 98 % 0 mm 7 W/m2
09:10 4.7 °C 4.4 °C 980.6 hPa ESE 3.2 km/h 3.2 km/h 98 % 0 mm 11 W/m2
09:15 4.8 °C 4.5 °C 980.9 hPa ESE 3.2 km/h 6.4 km/h 98 % 0 mm 16 W/m2
09:20 4.8 °C 4.5 °C 980.6 hPa East 4.8 km/h 4.8 km/h 98 % 0 mm 25 W/m2
09:25 4.8 °C 4.5 °C 980.9 hPa ESE 4.8 km/h 8 km/h 98 % 0 mm 23 W/m2
09:30 4.8 °C 4.6 °C 980.9 hPa East 3.2 km/h 3.2 km/h 98 % 0 mm 25 W/m2
09:35 4.8 °C 4.6 °C 980.6 hPa ESE 1.6 km/h 8 km/h 98 % 0 mm 21 W/m2
09:45 4.9 °C 4.6 °C 980.9 hPa ENE 3.2 km/h 8 km/h 98 % 0 mm 16 W/m2
09:50 4.9 °C 4.6 °C 980.6 hPa SE 3.2 km/h 8 km/h 98 % 0 mm 19 W/m2
09:55 4.9 °C 4.6 °C 980.9 hPa East 3.2 km/h 8 km/h 98 % 0 mm 18 W/m2
10:05 4.9 °C 4.6 °C 980.9 hPa ESE 6.4 km/h 9.7 km/h 98 % 0 mm 32 W/m2
10:10 4.9 °C 4.7 °C 980.9 hPa East 8 km/h 8 km/h 98 % 0 mm 28 W/m2
10:15 4.9 °C 4.7 °C 980.9 hPa ESE 8 km/h 8 km/h 98 % 0 mm 18 W/m2
10:25 4.9 °C 4.6 °C 980.9 hPa ESE 6.4 km/h 8 km/h 98 % 0 mm 32 W/m2
10:30 4.9 °C 4.7 °C 980.6 hPa ENE 4.8 km/h 8 km/h 98 % 0 mm 28 W/m2
10:35 4.9 °C 4.6 °C 980.9 hPa ENE 6.4 km/h 8 km/h 98 % 0 mm 30 W/m2
10:40 4.9 °C 4.6 °C 980.9 hPa NE 4.8 km/h 8 km/h 98 % 0 mm 40 W/m2
10:50 4.9 °C 4.7 °C 980.9 hPa East 3.2 km/h 8 km/h 98 % 0 mm 39 W/m2
10:55 4.9 °C 4.7 °C 980.9 hPa ESE 4.8 km/h 9.7 km/h 98 % 0 mm 21 W/m2
11:00 4.9 °C 4.6 °C 980.9 hPa East 4.8 km/h 4.8 km/h 98 % 0 mm 33 W/m2
11:05 4.9 °C 4.7 °C 980.9 hPa ESE 4.8 km/h 8 km/h 98 % 0 mm 26 W/m2
11:10 4.9 °C 4.7 °C 980.6 hPa East 4.8 km/h 8 km/h 98 % 0 mm 14 W/m2
11:15 4.9 °C 4.7 °C 980.6 hPa ENE 4.8 km/h 8 km/h 98 % 0 mm 28 W/m2
11:25 4.9 °C 4.7 °C 980.6 hPa ENE 6.4 km/h 8 km/h 98 % 0 mm 30 W/m2
11:30 4.9 °C 4.7 °C 980.6 hPa SE 6.4 km/h 6.4 km/h 98 % 0 mm 25 W/m2
11:35 5 °C 4.7 °C 980.6 hPa East 4.8 km/h 8 km/h 98 % 0 mm 25 W/m2
11:40 5 °C 4.7 °C 980.6 hPa East 4.8 km/h 4.8 km/h 98 % 0 mm 39 W/m2
11:45 5.1 °C 4.8 °C 980.6 hPa ESE 4.8 km/h 6.4 km/h 98 % 0 mm 40 W/m2
11:55 5.1 °C 4.8 °C 980.6 hPa ESE 6.4 km/h 11.3 km/h 98 % 0 mm 26 W/m2
12:00 5.2 °C 4.9 °C 980.6 hPa ESE 6.4 km/h 8 km/h 98 % 0 mm 23 W/m2
12:05 5.2 °C 4.9 °C 980.6 hPa ESE 8 km/h 11.3 km/h 98 % 0 mm 19 W/m2
12:10 5.2 °C 4.9 °C 980.2 hPa ESE 9.7 km/h 9.7 km/h 98 % 0 mm 23 W/m2
12:15 5.2 °C 4.9 °C 980.2 hPa SE 8 km/h 9.7 km/h 98 % 0 mm 21 W/m2
12:20 5.2 °C 4.9 °C 980.2 hPa East 6.4 km/h 8 km/h 98 % 0 mm 25 W/m2
12:30 5.3 °C 5 °C 980.2 hPa ESE 8 km/h 9.7 km/h 98 % 0 mm 26 W/m2
12:40 5.3 °C 5.1 °C 980.2 hPa ESE 6.4 km/h 6.4 km/h 98 % 0 mm 28 W/m2
12:45 5.4 °C 5.1 °C 980.2 hPa East 6.4 km/h 9.7 km/h 98 % 0 mm 42 W/m2
12:50 5.4 °C 5.2 °C 980.2 hPa East 6.4 km/h 6.4 km/h 98 % 0 mm 77 W/m2
13:00 5.6 °C 5.3 °C 980.2 hPa ESE 6.4 km/h 9.7 km/h 98 % 0 mm 51 W/m2
13:05 5.6 °C 5.3 °C 980.2 hPa ESE 6.4 km/h 11.3 km/h 98 % 0 mm 60 W/m2
13:10 5.7 °C 5.4 °C 980.2 hPa ESE 6.4 km/h 8 km/h 98 % 0 mm 33 W/m2
13:15 5.7 °C 5.4 °C 980.2 hPa East 6.4 km/h 8 km/h 98 % 0 mm 28 W/m2
13:20 5.7 °C 5.4 °C 980.2 hPa East 6.4 km/h 6.4 km/h 98 % 0 mm 30 W/m2
13:25 5.8 °C 5.5 °C 980.2 hPa ESE 6.4 km/h 8 km/h 98 % 0 mm 33 W/m2
13:35 5.8 °C 5.7 °C 980.2 hPa ESE 6.4 km/h 9.7 km/h 99 % 0 mm 25 W/m2
13:40 5.8 °C 5.6 °C 980.2 hPa ESE 8 km/h 8 km/h 98 % 0 mm 35 W/m2
13:45 5.9 °C 5.7 °C 980.2 hPa East 6.4 km/h 8 km/h 99 % 0 mm 30 W/m2
13:50 5.9 °C 5.7 °C 980.2 hPa ESE 4.8 km/h 4.8 km/h 99 % 0 mm 23 W/m2
14:00 5.9 °C 5.8 °C 980.2 hPa ESE 6.4 km/h 8 km/h 99 % 0 mm 21 W/m2
14:05 5.9 °C 5.7 °C 979.9 hPa ESE 6.4 km/h 8 km/h 98 % 0 mm 30 W/m2
14:10 6 °C 5.7 °C 979.9 hPa East 8 km/h 8 km/h 98 % 0 mm 25 W/m2
14:20 6 °C 5.7 °C 979.9 hPa ESE 6.4 km/h 8 km/h 98 % 0 mm 21 W/m2
14:25 6.1 °C 5.8 °C 979.9 hPa East 6.4 km/h 8 km/h 98 % 0 mm 16 W/m2
14:30 6.1 °C 5.8 °C 979.9 hPa East 8 km/h 8 km/h 98 % 0 mm 14 W/m2
14:40 6.1 °C 5.8 °C 979.9 hPa ESE 8 km/h 8 km/h 98 % 0 mm 23 W/m2
14:45 6.1 °C 5.8 °C 979.9 hPa East 8 km/h 8 km/h 98 % 0 mm 39 W/m2
14:50 6.1 °C 5.9 °C 979.9 hPa ESE 6.4 km/h 9.7 km/h 99 % 0 mm 33 W/m2
14:55 6.2 °C 6 °C 979.9 hPa ESE 6.4 km/h 11.3 km/h 99 % 0 mm 23 W/m2
15:00 6.2 °C 6 °C 979.9 hPa East 8 km/h 9.7 km/h 99 % 0 mm 19 W/m2
15:05 6.2 °C 6.1 °C 979.9 hPa ESE 8 km/h 9.7 km/h 99 % 0 mm 12 W/m2
15:15 6.2 °C 5.9 °C 979.9 hPa ENE 6.4 km/h 9.7 km/h 98 % 0 mm 11 W/m2
15:20 6.2 °C 5.9 °C 979.9 hPa ESE 6.4 km/h 8 km/h 98 % 0 mm 23 W/m2
15:25 6.2 °C 5.9 °C 979.9 hPa ESE 6.4 km/h 11.3 km/h 98 % 0 mm 18 W/m2
15:30 6.2 °C 5.9 °C 979.9 hPa SE 8 km/h 9.7 km/h 98 % 0 mm 12 W/m2
15:35 6.2 °C 5.9 °C 979.9 hPa ENE 9.7 km/h 9.7 km/h 98 % 0 mm 5 W/m2
15:45 6.2 °C 5.9 °C 980.2 hPa ENE 6.4 km/h 9.7 km/h 98 % 0 mm 0 W/m2
15:50 6.2 °C 5.9 °C 980.2 hPa ESE 6.4 km/h 8 km/h 98 % 0 mm 0 W/m2
15:55 6.2 °C 5.9 °C 980.2 hPa ESE 6.4 km/h 8 km/h 98 % 0 mm 0 W/m2
16:00 6.2 °C 5.9 °C 980.2 hPa ESE 8 km/h 8 km/h 98 % 0 mm 0 W/m2
16:05 6.3 °C 6 °C 980.2 hPa East 8 km/h 8 km/h 98 % 0 mm 0 W/m2
16:10 6.3 °C 6 °C 980.2 hPa ESE 8 km/h 12.9 km/h 98 % 0 mm 0 W/m2
16:20 6.3 °C 6 °C 980.2 hPa SE 9.7 km/h 9.7 km/h 98 % 0 mm 0 W/m2
16:25 6.3 °C 6 °C 980.2 hPa SE 8 km/h 14.5 km/h 98 % 0 mm 0 W/m2
16:30 6.3 °C 6.1 °C 980.2 hPa ESE 8 km/h 9.7 km/h 98 % 0 mm 0 W/m2
16:35 6.3 °C 6.1 °C 980.2 hPa ESE 9.7 km/h 11.3 km/h 98 % 0 mm 0 W/m2
16:40 6.3 °C 6.1 °C 980.2 hPa East 9.7 km/h 9.7 km/h 98 % 0 mm 0 W/m2
16:50 6.3 °C 6.1 °C 980.2 hPa East 9.7 km/h 9.7 km/h 98 % 0 mm 0 W/m2
16:55 6.4 °C 6.1 °C 980.2 hPa ESE 9.7 km/h 9.7 km/h 98 % 0 mm 0 W/m2
17:00 6.4 °C 6.1 °C 980.2 hPa SE 8 km/h 8 km/h 98 % 0 mm 0 W/m2
17:05 6.4 °C 6.2 °C 980.2 hPa SE 8 km/h 12.9 km/h 98 % 0 mm 0 W/m2
17:10 6.4 °C 6.1 °C 980.2 hPa ESE 9.7 km/h 9.7 km/h 98 % 0 mm 0 W/m2
17:15 6.4 °C 6.1 °C 980.2 hPa ESE 9.7 km/h 9.7 km/h 98 % 0 mm 0 W/m2
17:30 6.4 °C 6.2 °C 980.2 hPa SE 6.4 km/h 8 km/h 98 % 0 mm 0 W/m2
17:35 6.4 °C 6.2 °C 980.2 hPa ESE 8 km/h 8 km/h 98 % 0 mm 0 W/m2
17:40 6.5 °C 6.3 °C 980.2 hPa ESE 6.4 km/h 6.4 km/h 99 % 0 mm 0 W/m2
17:45 6.5 °C 6.3 °C 980.2 hPa ESE 6.4 km/h 11.3 km/h 99 % 0 mm 0 W/m2
17:55 6.5 °C 6.3 °C 980.6 hPa SE 8 km/h 8 km/h 99 % 0 mm 0 W/m2
18:00 6.5 °C 6.3 °C 980.2 hPa ESE 6.4 km/h 9.7 km/h 99 % 0 mm 0 W/m2
18:05 6.6 °C 6.4 °C 980.2 hPa SE 6.4 km/h 9.7 km/h 99 % 0 mm 0 W/m2
18:10 6.6 °C 6.4 °C 980.2 hPa SE 6.4 km/h 8 km/h 99 % 0 mm 0 W/m2
18:20 6.5 °C 6.3 °C 980.2 hPa ESE 8 km/h 11.3 km/h 99 % 0 mm 0 W/m2
18:25 6.5 °C 6.2 °C 980.2 hPa SE 8 km/h 11.3 km/h 98 % 0 mm 0 W/m2
18:30 6.5 °C 6.2 °C 980.2 hPa SE 8 km/h 8 km/h 98 % 0 mm 0 W/m2
18:40 6.6 °C 6.3 °C 980.2 hPa ESE 9.7 km/h 9.7 km/h 98 % 0 mm 0 W/m2
18:45 6.6 °C 6.3 °C 980.2 hPa ESE 8 km/h 9.7 km/h 98 % 0 mm 0 W/m2
18:50 6.6 °C 6.4 °C 980.2 hPa ESE 6.4 km/h 6.4 km/h 99 % 0 mm 0 W/m2
18:55 6.6 °C 6.4 °C 980.2 hPa ESE 6.4 km/h 8 km/h 99 % 0 mm 0 W/m2
19:05 6.6 °C 6.4 °C 980.2 hPa East 4.8 km/h 8 km/h 99 % 0 mm 0 W/m2
19:10 6.6 °C 6.3 °C 980.2 hPa ESE 6.4 km/h 8 km/h 98 % 0 mm 0 W/m2
19:15 6.6 °C 6.3 °C 980.6 hPa ESE 8 km/h 9.7 km/h 98 % 0 mm 0 W/m2
19:20 6.6 °C 6.3 °C 980.6 hPa SE 6.4 km/h 8 km/h 98 % 0 mm 0 W/m2
19:25 6.6 °C 6.3 °C 980.2 hPa ESE 6.4 km/h 8 km/h 98 % 0 mm 0 W/m2
19:35 6.6 °C 6.3 °C 980.6 hPa SE 6.4 km/h 11.3 km/h 98 % 0 mm 0 W/m2
19:40 6.6 °C 6.3 °C 980.6 hPa ESE 8 km/h 8 km/h 98 % 0 mm 0 W/m2
19:45 6.6 °C 6.3 °C 980.6 hPa SE 6.4 km/h 8 km/h 98 % 0 mm 0 W/m2
19:50 6.6 °C 6.3 °C 980.6 hPa SE 6.4 km/h 6.4 km/h 98 % 0 mm 0 W/m2
19:55 6.6 °C 6.3 °C 980.6 hPa ESE 6.4 km/h 8 km/h 98 % 0 mm 0 W/m2
20:00 6.6 °C 6.3 °C 980.6 hPa SE 6.4 km/h 6.4 km/h 98 % 0 mm 0 W/m2
20:10 6.6 °C 6.3 °C 980.6 hPa ESE 4.8 km/h 8 km/h 98 % 0 mm 0 W/m2
20:15 6.6 °C 6.3 °C 980.6 hPa East 3.2 km/h 8 km/h 98 % 0 mm 0 W/m2
20:20 6.6 °C 6.3 °C 980.6 hPa ESE 4.8 km/h 8 km/h 98 % 0 mm 0 W/m2
20:25 6.6 °C 6.3 °C 980.6 hPa ESE 4.8 km/h 8 km/h 98 % 0 mm 0 W/m2
20:30 6.6 °C 6.3 °C 980.6 hPa ESE 4.8 km/h 8 km/h 98 % 0 mm 0 W/m2
20:40 6.6 °C 6.3 °C 980.6 hPa ESE 6.4 km/h 6.4 km/h 98 % 0 mm 0 W/m2
20:45 6.6 °C 6.4 °C 980.2 hPa East 4.8 km/h 8 km/h 99 % 0 mm 0 W/m2
20:50 6.6 °C 6.3 °C 980.6 hPa East 4.8 km/h 4.8 km/h 98 % 0 mm 0 W/m2
20:55 6.5 °C 6.2 °C 980.6 hPa East 4.8 km/h 8 km/h 98 % 0 mm 0 W/m2
21:00 6.5 °C 6.2 °C 980.6 hPa ESE 3.2 km/h 8 km/h 98 % 0 mm 0 W/m2
21:05 6.5 °C 6.2 °C 980.6 hPa ENE 3.2 km/h 8 km/h 98 % 0 mm 0 W/m2
21:15 6.5 °C 6.3 °C 980.2 hPa ESE 4.8 km/h 8 km/h 99 % 0 mm 0 W/m2
21:25 6.5 °C 6.3 °C 980.2 hPa ESE 4.8 km/h 8 km/h 99 % 1.27 mm 0 W/m2
21:30 6.6 °C 6.4 °C 980.2 hPa ESE 4.8 km/h 8 km/h 99 % 1.27 mm 0 W/m2
21:35 6.5 °C 6.3 °C 980.2 hPa ESE 4.8 km/h 8 km/h 99 % 1.02 mm 0 W/m2
21:45 6.5 °C 6.3 °C 980.2 hPa East 6.4 km/h 8 km/h 99 % 0 mm 0 W/m2
21:50 6.6 °C 6.4 °C 980.2 hPa SE 6.4 km/h 9.7 km/h 99 % 0 mm 0 W/m2
21:55 6.6 °C 6.4 °C 980.6 hPa East 8 km/h 9.7 km/h 99 % 0 mm 0 W/m2
22:00 6.6 °C 6.4 °C 980.2 hPa ESE 8 km/h 8 km/h 99 % 0 mm 0 W/m2
22:05 6.6 °C 6.4 °C 980.2 hPa East 6.4 km/h 8 km/h 99 % 0 mm 0 W/m2
22:10 6.6 °C 6.4 °C 980.2 hPa ESE 6.4 km/h 8 km/h 99 % 0 mm 0 W/m2
22:20 6.6 °C 6.4 °C 980.2 hPa ESE 4.8 km/h 8 km/h 99 % 0 mm 0 W/m2
22:25 6.6 °C 6.4 °C 980.2 hPa ENE 6.4 km/h 9.7 km/h 99 % 0 mm 0 W/m2
22:30 6.6 °C 6.4 °C 980.2 hPa East 6.4 km/h 6.4 km/h 99 % 0 mm 0 W/m2
22:35 6.6 °C 6.4 °C 980.2 hPa ESE 4.8 km/h 8 km/h 99 % 0 mm 0 W/m2
22:40 6.6 °C 6.4 °C 980.2 hPa ENE 4.8 km/h 11.3 km/h 99 % 0 mm 0 W/m2
22:50 6.6 °C 6.4 °C 980.2 hPa ESE 8 km/h 8 km/h 99 % 0 mm 0 W/m2
22:55 6.6 °C 6.4 °C 980.2 hPa East 8 km/h 8 km/h 99 % 0 mm 0 W/m2
23:00 6.6 °C 6.4 °C 980.2 hPa ESE 6.4 km/h 8 km/h 99 % 0 mm 0 W/m2
23:05 6.6 °C 6.4 °C 980.2 hPa ESE 8 km/h 8 km/h 99 % 0 mm 0 W/m2
23:15 6.6 °C 6.4 °C 979.9 hPa ESE 11.3 km/h 14.5 km/h 99 % 0 mm 0 W/m2
23:20 6.6 °C 6.4 °C 979.9 hPa SE 11.3 km/h 11.3 km/h 99 % 0 mm 0 W/m2
23:25 6.6 °C 6.4 °C 979.9 hPa ESE 11.3 km/h 11.3 km/h 99 % 3.81 mm 0 W/m2
23:35 6.6 °C 6.4 °C 980.2 hPa ESE 9.7 km/h 11.3 km/h 99 % 2.03 mm 0 W/m2
23:40 6.5 °C 6.3 °C 980.2 hPa ESE 9.7 km/h 14.5 km/h 99 % 3.05 mm 0 W/m2
23:45 6.5 °C 6.3 °C 980.2 hPa ESE 9.7 km/h 14.5 km/h 99 % 2.54 mm 0 W/m2
23:50 6.5 °C 6.3 °C 979.9 hPa ESE 8 km/h 9.7 km/h 99 % 2.79 mm 0 W/m2
Delerius-Weather
Compliments of Weather Underground - 2 mb

Data updates at regular intervals.